When you browse on this site, cookies collect data to enhance your experience and personalize the content and advertising you see.
Visit our Privacy Policy to learn more. By continuing to use the site, you agree to this use of cookies and data.
  • In Denmark
  • List of Countries
  • For 7 days
  • Water Temperature
  • Satellite Maps
  • Weather Map
  • Weather Widgets
  • user-avatar
    Login

    Hourly Weather Larne

    Today, 17 February, Sunday

    Time Temperature Precipitation Wind Pressure Humidity
    00:00 +8°C° 0.1 mm 11 mps 750 mmHg 88%
    01:00 +8°C° 0 mm 11 mps 750 mmHg 88%
    02:00 +8°C° 0 mm 12 mps 749 mmHg 87%
    03:00 +8°C° 0 mm 12 mps 749 mmHg 87%
    04:00 +8°C° 0.1 mm 12 mps 748 mmHg 88%
    05:00 +8°C° 0.1 mm 12 mps 748 mmHg 89%
    06:00 +8°C° 0.1 mm 12 mps 747 mmHg 90%
    07:00 +8°C° 0.6 mm 11 mps 748 mmHg 90%
    08:00 +8°C° 0.6 mm 9 mps 748 mmHg 90%
    09:00 +9°C° 0.6 mm 8 mps 748 mmHg 90%
    10:00 +9°C° 0.1 mm 8 mps 748 mmHg 85%
    11:00 +9°C° 0.1 mm 8 mps 748 mmHg 81%
    12:00 +9°C° 0.1 mm 8 mps 749 mmHg 76%
    13:00 +9°C° 0 mm 8 mps 749 mmHg 73%
    14:00 +9°C° 0 mm 8 mps 748 mmHg 70%
    15:00 +9°C° 0 mm 8 mps 748 mmHg 68%
    16:00 +7°C° 0 mm 8 mps 748 mmHg 70%
    17:00 +6°C° 0 mm 9 mps 748 mmHg 73%
    18:00 +6°C° 0 mm 9 mps 748 mmHg 76%
    19:00 +6°C° 0 mm 9 mps 748 mmHg 77%
    20:00 +5°C° 0 mm 9 mps 748 mmHg 79%
    21:00 +5°C° 0 mm 9 mps 748 mmHg 81%
    22:00 +5°C° 0 mm 9 mps 748 mmHg 80%
    23:00 +5°C° 0 mm 10 mps 748 mmHg 79%

    Tomorrow, 18 February, Monday

    Time Temperature Precipitation Wind Pressure Humidity
    00:00 +3°C° 0 mm 10 mps 748 mmHg 78%
    01:00 +5°C° 0 mm 10 mps 748 mmHg 78%
    02:00 +5°C° 0 mm 9 mps 748 mmHg 79%
    03:00 +5°C° 0 mm 9 mps 748 mmHg 79%
    04:00 +5°C° 0 mm 9 mps 748 mmHg 80%
    05:00 +3°C° 0 mm 9 mps 748 mmHg 80%
    06:00 +2°C° 0 mm 9 mps 748 mmHg 80%
    07:00 +3°C° 0 mm 9 mps 748 mmHg 82%
    08:00 +3°C° 0 mm 9 mps 749 mmHg 83%
    09:00 +3°C° 0 mm 9 mps 749 mmHg 84%
    10:00 +5°C° 0 mm 8 mps 749 mmHg 81%
    11:00 +6°C° 0 mm 8 mps 750 mmHg 78%
    12:00 +8°C° 0 mm 7 mps 750 mmHg 74%
    13:00 +8°C° 0.1 mm 7 mps 750 mmHg 74%
    14:00 +8°C° 0.1 mm 7 mps 750 mmHg 74%
    15:00 +8°C° 0.1 mm 7 mps 750 mmHg 74%
    16:00 +7°C° 0.1 mm 6 mps 751 mmHg 78%
    17:00 +6°C° 0.1 mm 5 mps 751 mmHg 82%
    18:00 +5°C° 0.1 mm 5 mps 752 mmHg 87%
    19:00 +5°C° 0 mm 5 mps 752 mmHg 88%
    20:00 +3°C° 0 mm 6 mps 752 mmHg 88%
    21:00 +3°C° 0 mm 6 mps 753 mmHg 89%
    22:00 +3°C° 0 mm 6 mps 753 mmHg 89%
    23:00 +2°C° 0 mm 6 mps 753 mmHg 90%

    Day after tomorrow, 19 February, Tuesday

    Time Temperature Precipitation Wind Pressure Humidity
    00:00 +2°C° 0 mm 6 mps 754 mmHg 90%
    01:00 +2°C° 0 mm 6 mps 754 mmHg 90%
    02:00 +1°C° 0 mm 6 mps 754 mmHg 89%
    03:00 +1°C° 0 mm 6 mps 754 mmHg 89%
    04:00 +1°C° 0 mm 6 mps 754 mmHg 90%
    05:00 +1°C° 0 mm 5 mps 754 mmHg 91%
    06:00 +1°C° 0 mm 5 mps 754 mmHg 91%
    07:00 +1°C° 0 mm 5 mps 755 mmHg 90%
    08:00 +1°C° 0 mm 5 mps 755 mmHg 89%
    09:00 +2°C° 0 mm 5 mps 755 mmHg 88%
    10:00 +3°C° 0.3 mm 6 mps 755 mmHg 89%
    11:00 +3°C° 0.3 mm 7 mps 755 mmHg 89%
    12:00 +4°C° 0.3 mm 7 mps 755 mmHg 90%
    13:00 +4°C° 0.4 mm 8 mps 754 mmHg 90%
    14:00 +5°C° 0.4 mm 8 mps 753 mmHg 91%
    15:00 +5°C° 0.4 mm 9 mps 753 mmHg 91%
    16:00 +5°C° 0.3 mm 9 mps 752 mmHg 92%
    17:00 +6°C° 0.3 mm 9 mps 752 mmHg 92%
    18:00 +6°C° 0.3 mm 9 mps 752 mmHg 92%
    19:00 +6°C° 0.7 mm 8 mps 752 mmHg 93%
    20:00 +6°C° 0.7 mm 8 mps 751 mmHg 93%
    21:00 +6°C° 0.7 mm 8 mps 751 mmHg 94%
    22:00 +7°C° 1.6 mm 8 mps 751 mmHg 94%
    23:00 +7°C° 1.6 mm 8 mps 751 mmHg 94%

    20 February, Wednesday

    Time Temperature Precipitation Wind Pressure Humidity
    00:00 +7°C° 1.6 mm 8 mps 751 mmHg 94%
    01:00 +7°C° 0.9 mm 8 mps 751 mmHg 94%
    02:00 +7°C° 0.9 mm 8 mps 751 mmHg 94%
    03:00 +7°C° 0.9 mm 8 mps 751 mmHg 93%
    04:00 +9°C° 0.1 mm 8 mps 751 mmHg 93%
    05:00 +9°C° 0.1 mm 8 mps 751 mmHg 93%
    06:00 +9°C° 0.1 mm 8 mps 751 mmHg 92%
    07:00 +9°C° 0.2 mm 8 mps 751 mmHg 92%
    08:00 +8°C° 0.2 mm 9 mps 751 mmHg 92%
    09:00 +8°C° 0.2 mm 9 mps 751 mmHg 92%
    10:00 +8°C° 0.7 mm 9 mps 751 mmHg 92%
    11:00 +8°C° 0.7 mm 9 mps 751 mmHg 91%
    12:00 +9°C° 0.7 mm 10 mps 751 mmHg 91%
    13:00 +10°C° 0.1 mm 9 mps 752 mmHg 89%
    14:00 +10°C° 0.1 mm 9 mps 752 mmHg 86%
    15:00 +10°C° 0.1 mm 8 mps 752 mmHg 84%
    16:00 +10°C° 0 mm 8 mps 753 mmHg 85%
    17:00 +9°C° 0 mm 7 mps 753 mmHg 86%
    18:00 +9°C° 0 mm 6 mps 754 mmHg 88%
    19:00 +8°C° 0 mm 6 mps 755 mmHg 90%
    20:00 +7°C° 0 mm 5 mps 755 mmHg 92%
    21:00 +6°C° 0 mm 4 mps 756 mmHg 94%
    22:00 +6°C° 0 mm 4 mps 756 mmHg 94%
    23:00 +6°C° 0 mm 4 mps 757 mmHg 94%

    21 February, Thursday

    Time Temperature Precipitation Wind Pressure Humidity
    00:00 +6°C° 0 mm 4 mps 757 mmHg 94%
    01:00 +7°C° 0 mm 4 mps 757 mmHg 95%
    02:00 +7°C° 0 mm 4 mps 758 mmHg 95%
    03:00 +7°C° 0 mm 4 mps 758 mmHg 96%
    04:00 +8°C° 0 mm 5 mps 758 mmHg 96%
    05:00 +8°C° 0 mm 5 mps 758 mmHg 96%
    06:00 +8°C° 0 mm 6 mps 759 mmHg 96%
    07:00 +8°C° 0 mm 6 mps 759 mmHg 95%
    08:00 +9°C° 0 mm 6 mps 760 mmHg 94%
    09:00 +9°C° 0 mm 6 mps 760 mmHg 93%
    10:00 +9°C° 0 mm 6 mps 761 mmHg 90%
    11:00 +10°C° 0 mm 7 mps 761 mmHg 87%
    12:00 +10°C° 0 mm 7 mps 762 mmHg 84%
    13:00 +10°C° 0 mm 7 mps 762 mmHg 84%
    14:00 +10°C° 0 mm 7 mps 762 mmHg 83%
    15:00 +10°C° 0 mm 7 mps 762 mmHg 82%
    16:00 +9°C° 0 mm 7 mps 762 mmHg 86%
    17:00 +9°C° 0 mm 7 mps 762 mmHg 89%
    18:00 +8°C° 0 mm 7 mps 762 mmHg 93%
    19:00 +8°C° 0 mm 7 mps 762 mmHg 93%
    20:00 +8°C° 0 mm 7 mps 763 mmHg 93%
    21:00 +7°C° 0 mm 8 mps 763 mmHg 94%
    22:00 +7°C° 0 mm 8 mps 763 mmHg 93%
    23:00 +7°C° 0 mm 8 mps 763 mmHg 92%

    22 February, Friday

    Time Temperature Precipitation Wind Pressure Humidity
    00:00 +7°C° 0 mm 8 mps 764 mmHg 91%
    01:00 +7°C° 0 mm 8 mps 764 mmHg 90%
    02:00 +7°C° 0 mm 8 mps 764 mmHg 89%
    03:00 +7°C° 0 mm 9 mps 764 mmHg 88%
    04:00 +7°C° 0 mm 9 mps 764 mmHg 86%
    05:00 +8°C° 0 mm 9 mps 764 mmHg 85%
    06:00 +9°C° 0 mm 8 mps 764 mmHg 83%
    07:00 +9°C° 0 mm 8 mps 764 mmHg 83%
    08:00 +9°C° 0 mm 8 mps 765 mmHg 83%
    09:00 +9°C° 0 mm 8 mps 765 mmHg 83%
    10:00 +9°C° 0 mm 8 mps 765 mmHg 82%
    11:00 +10°C° 0 mm 8 mps 766 mmHg 81%
    12:00 +10°C° 0 mm 8 mps 766 mmHg 80%
    13:00 +11°C° 0 mm 8 mps 766 mmHg 80%
    14:00 +11°C° 0 mm 8 mps 766 mmHg 81%
    15:00 +11°C° 0 mm 9 mps 766 mmHg 81%
    16:00 +10°C° 0 mm 8 mps 766 mmHg 82%
    17:00 +9°C° 0 mm 8 mps 766 mmHg 82%
    18:00 +9°C° 0 mm 8 mps 766 mmHg 83%
    19:00 +9°C° 0 mm 8 mps 766 mmHg 82%
    20:00 +9°C° 0 mm 8 mps 766 mmHg 81%
    21:00 +9°C° 0 mm 8 mps 766 mmHg 80%
    22:00 +9°C° 0 mm 8 mps 766 mmHg 81%
    23:00 +7°C° 0 mm 8 mps 766 mmHg 82%
    Show more